Regional Weather Roundup
Issued by NWS Upton, NY

Home | Current Version | Previous Version | Text Only | Print | Product List | Glossary On
Versions: 1 2 3 4 5 6 7 8 9 10 11 12 13 14 15 16 17 18 19 20 21 22 23 24 25 26 27 28 29 30 31 32 33 34 35 36 37 38 39 40 41 42 43 44 45 46 47 48 49
000
ASUS41 KOKX 212305
RWROKX

REGIONAL WEATHER ROUNDUP
NATIONAL WEATHER SERVICE NEW YORK NY
700 PM EDT SUN SEP 21 2014

NOTE: "FAIR" INDICATES FEW OR NO CLOUDS BELOW 12,000 FEET WITH NO
SIGNIFICANT WEATHER AND/OR OBSTRUCTIONS TO VISIBILITY.

NYZ071-072-176-178-NJZ106-104-220000-
NEW YORK CITY METRO AREA


CITY           SKY/WX    TMP DP  RH WIND       PRES   REMARKS
CENTRAL PARK   CLOUDY    73  65  75 CALM      29.64F
LAGUARDIA APRT CLOUDY    73  67  81 N3        29.60F
KENNEDY INTL   CLOUDY    72  68  87 S3        29.62F
NEWARK/LIBERTY MOCLDY    74  67  78 S5        29.61F
BRNX BOT. GARD   N/A     70  66  88 E1        29.63S
TETERBORO      CLOUDY    75  65  70 SW7       29.60F
$$

NYZ177-179-078>081-220000-
LONG ISLAND NEW YORK

CITY           SKY/WX    TMP DP  RH WIND       PRES   REMARKS
FARMINGDALE    CLOUDY    72  68  87 SW5       29.61F
ISLIP          CLOUDY    72  68  87 CALM      29.59F
SHIRLEY        CLOUDY    72  69  90 SW3       29.62F
WESTHAMPTON    CLOUDY    71  68  90 NW3       29.63F
MONTAUK POINT    N/A     69  67  93 CALM      29.63F
$$

NYZ052-065-067-220000-
HUDSON VALLEY

CITY           SKY/WX    TMP DP  RH WIND       PRES   REMARKS
WHITE PLAINS   CLOUDY    71  68  90 CALM      29.62F
NEWBURGH       MOCLDY    73  68  83 VRB6      29.63F
MONTGOMERY     MOCLDY    73  65  75 S6        29.60F
POUGHKEEPSIE   CLOUDY    73  66  78 SE3       29.59F
ALBANY         MOCLDY    76  64  66 S9        29.59S
$$

NJZ001-105-106-008-010-013-015-019>022-104-220000-
NEW JERSEY

CITY           SKY/WX    TMP DP  RH WIND       PRES   REMARKS
NEWARK/LIBERTY MOCLDY    74  67  78 S5        29.61F
TETERBORO      CLOUDY    75  65  70 SW7       29.60F
CALDWELL       MOCLDY    73  65  75 CALM      29.62F
MORRISTOWN     PTCLDY    75  66  73 CALM      29.62F
SOMERVILLE     MOCLDY    74  65  73 CALM      29.60F
LINDEN         FAIR      76  70  80 CALM      29.63F
SUSSEX         MOCLDY    75  62  64 SW3       29.62S
ANDOVER          N/A     69  63  81 CALM      29.63F
TRENTON        MOCLDY    73  64  73 SW6       29.63S
MILLVILLE      PTCLDY    73  68  84 CALM      29.65R
ATLANTIC CITY  MOCLDY    73  69  87 CALM      29.64R
WRIGHTSTOWN    MOCLDY    72  70  92 S3        29.62S
TOMS RIVER     MOCLDY    72  68  88 CALM      29.64R
BELMAR         MOCLDY    72  66  83 CALM      29.63S
$$

PAZ047>061-062-071-220000-
EASTERN PENNSYLVANIA

CITY           SKY/WX    TMP DP  RH WIND       PRES   REMARKS
PHILADELPHIA   MOCLDY    75  65  70 SW6       29.64S
ALLENTOWN      CLEAR     71  58  63 SW5       29.62F
SCRANTON       CLEAR     75  60  59 S6        29.62R
$$

CTZ002-004>006-009-010-012-RIZ004-006-007-MAZ004-011-015-220000-
SOUTHERN NEW ENGLAND
 IN CT

CITY           SKY/WX    TMP DP  RH WIND       PRES   REMARKS
BRADLEY INTL   CLOUDY    73  68  84 S5        29.61F
HARTFORD       CLOUDY    72  69  90 S5        29.61F
DANBURY        CLOUDY    70  69  97 SE5       29.63F FOG
WTRBRY/OXFORD  PTCLDY    72  64  78 S5        29.65F
BRIDGEPORT     CLOUDY    72  69  90 E3        29.61F
MERIDEN        CLOUDY    72  68  87 CALM      29.61F
NEW HAVEN      CLOUDY    74  69  85 SE3       29.61F
CHESTER        CLOUDY    70  70 100 SE6       29.64F FOG
GROTON         CLOUDY    68  66  93 S3        29.61F
WILLIMANTIC    CLOUDY    73  69  87 MISG      29.63F

 IN RI

CITY           SKY/WX    TMP DP  RH WIND       PRES   REMARKS
PROVIDENCE     CLOUDY    69  68  96 SE3       29.64F FOG
BLOCK ISLAND   CLOUDY    70  64  83 CALM      29.62F
WESTERLY       CLOUDY    70  66  87 E3        29.62F

 IN MA

CITY           SKY/WX    TMP DP  RH WIND       PRES   REMARKS
BOSTON         CLOUDY    68  65  90 SE8       29.62F
WORCESTER      CLOUDY    68  67  96 SW6       29.65F
WESTFIELD      CLOUDY    72  69  90 SE3       29.61F
PROVINCETOWN   CLOUDY    68  66  94 SE8       29.64F
NANTUCKET      LGT RAIN  65  64  97 E6        29.62F
$$

ANZ330-335-338-340-345-350-353-355-220000-
COASTAL MARINE OBSERVATIONS


STATION/POSITION TIME  SKY/WX   TEMP    WIND        PRES    VSBY  WAVE
                                AIR SEA DIR/SP/G                  HT/PER
                 (UTC)          (F)     (DEG/KT/KT) (MB)    (MI)  (FT/S)
NY HARB ENTRANCE 2300            71 71  120/  2/  4 1003.2          4/ 8
4S FIRE IS       2300               71                N/A           4/ 7
20S FIRE ISLAND  2300            70 70  350/  2/  4 1003.6          4/ 8
23SW MTP         2300                                 N/A           4/ 7
HUDSON CANYON    2300            71 71   10/  8/ 10 1002.0          4/ 8
EXECUTION ROCKS  2300            72 71  120/  2/  4   N/A
WESTERN LI SOUND 2300            72     110/  4/  4   N/A           0
CENTRAL LI SOUND 2200            71 71   90/  4/  4   N/A           1
EASTERN LI SOUND 2200            70 69  210/  2/  4   N/A
ROBBINS REEF     2300            73     230/  6/  6 1001.7
$$


>>>>>>>>>>>>>>>>>>>>>>>>>>>> KEY <<<<<<<<<<<<<<<<<<<<<<<<<<<
>                                                          <
>     SKY/WX - SKY CONDITION/PRESENT WEATHER               <
>     TMP    - TEMPERATURE IN FAHRENHEIT                   <
>     DP     - DEWPOINT IN FAHRENHEIT                      <
>     RH     - RELATIVE HUMIDITY IN PERCENT                <
>     WIND   - DIRECTION AND SPEED IN MPH                  <
>     PRES   - MEAN SEA LEVEL PRESSURE IN INCHES OF HG     <
>     WCI    - WIND CHILL INDEX                            <
>     VSB    - VISIBILITY IN MILES                         <
>     HX     - HEAT INDEX                                  <
>     TC     - TEMPERATURE IN CELSIUS                      <
>     VRB    - VARIABLE WIND DIRECTION                     <
>                                                          <
>>>>>>>>>>>>>>>>>>>>>>>>>>>> KEY <<<<<<<<<<<<<<<<<<<<<<<<<<<





USA.gov is the U.S. government's official web portal to all federal, state and local government web resources and services.